Location: Gilevgi
(36.8751°N, 30.0581°E)
Time: 23:33:31
(UTC+00:00)

Cosmos 1953 Rocket - Visible Passes

Search period start: 12 March 2026 00:00
Search period end: 22 March 2026 00:00
Orbit: 597 x 628 km, 82.5° (Epoch: 12 March)

Date Brightness Start Highest point End Pass type
(mag) Time Alt. Az. Time Alt. Az. Time Alt. Az.
12 Mar 3.4 17:05:39 10° S 17:09:52 62° E 17:14:06 10° NNE visible
13 Mar 6.9 03:17:31 10° NE 03:19:30 13° ENE 03:21:28 10° E visible
13 Mar 3.8 17:20:49 10° SSW 17:25:04 69° W 17:29:21 10° N visible
14 Mar 6.4 03:31:27 10° NNE 03:34:56 23° ENE 03:38:24 10° SE visible
14 Mar 5.1 17:36:24 10° SW 17:40:20 36° WNW 17:44:18 10° NNW visible
15 Mar 5.2 03:46:07 10° N 03:50:16 40° E 03:54:25 10° SSE visible
15 Mar 6.3 17:52:32 10° WSW 17:55:41 20° WNW 17:58:52 10° NNW visible
16 Mar 3.6 16:28:57 10° S 16:33:05 51° E 16:37:16 10° NNE visible
16 Mar 7.0 18:09:55 10° W 18:11:08 11° WNW 18:12:21 10° NW visible
17 Mar 7.2 02:41:31 10° NE 02:42:39 11° ENE 02:43:47 10° E visible
17 Mar 3.6 16:43:59 10° S 16:48:15 82° W 16:52:34 10° N visible
18 Mar 6.6 02:54:54 10° NNE 02:58:06 20° ENE 03:01:19 10° ESE visible
18 Mar 4.9 16:59:27 10° SSW 17:03:30 42° W 17:07:36 10° N visible
19 Mar 5.5 03:09:25 10° NNE 03:13:28 34° ENE 03:17:30 10° SE visible
19 Mar 6.2 17:15:24 10° SW 17:18:50 23° WNW 17:22:18 10° NNW visible
20 Mar 4.1 03:24:21 10° N 03:28:45 65° E 03:33:08 10° SSE visible
20 Mar 7.0 17:32:13 10° W 17:34:16 13° WNW 17:36:18 10° NW visible
